weather.gov     
National Weather Service

Terminal Aerodrome Forecast
NWS Homepage
This page is being discontinued on March 12, 2014.
The same data is available at this site. Please update your bookmarks.
Thank you, and we apologize for the inconvenience.
Please send an email to SR-SRH.Webmaster@noaa.gov with any concerns.


Current Version
Previous Version:    01  02  03  04  05  06  07  08  09  10  11  12  13  14  15  16  17  18  19  20  21  22  23  24  25  26  27  28  29  
[Printable]
407
FTUS41 KPHI 280500 RRA
TAFACY
TAF
KACY 280543Z 2806/2906 18010KT P6SM BKN050 OVC100
      TEMPO 2807/2809 5SM -SHRA BR BKN035
     FM280900 21003KT 4SM BR BKN100
     FM281300 26016G25KT P6SM BKN040
     FM282300 29008KT P6SM SCT200=


U.S. Dept. of Commerce
NOAA National Weather Service
1325 East West Highway
Silver Spring, MD 20910
E-mail: w-nws.webmaster@noaa.gov
Page last modified: May 16, 2007
NATIONAL WEATHER SERVICE: for Safety, for Work, for Fun - FOR LIFE